Alexandra Park, Ontario

8:08 AM EDT on April 27, 2017 (GMT -0400)
Alexandra Park

Weather History for 71508 - September, 2013

Change the Weather History Date:

Thursday, September 5, 2013

  Actual Average Record
Temperature  
Mean Temperature 60 °F -  
Max Temperature 64 °F - - ()
Min Temperature 54 °F - - ()
Degree Days  
Heating Degree Days 6    
Growing Degree Days 10 (Base 50)    
Moisture  
Dew Point 42 °F    
Average Humidity 54    
Maximum Humidity 80    
Minimum Humidity 27    
Precipitation  
Precipitation 0.00 in - - ()
Sea Level Pressure  
Sea Level Pressure 30.16 in    
Wind  
Wind Speed - ()    
Max Wind Speed -    
Max Gust Speed -    
T = Trace of Precipitation, MM = Missing Value Source: Averaged Metar Reports

Daily Weather History Graph

Daily Weather History Graph

Search for Another Location

Airport or City:

Trip Planner

Search our weather history database for the weather conditions in past years. The results will help you decide how hot, cold, wet, or windy it might be!

Date:

Astronomy

Sep. 05, 2013 Rise Set
Actual Time 6:45 AM EDT 7:45 PM EDT
Civil Twilight 6:16 AM EDT 8:14 PM EDT
Nautical Twilight 5:41 AM EDT 8:49 PM EDT
Astronomical Twilight 5:04 AM EDT 9:26 PM EDT
Moon 6:57 AM EDT (9/5) 7:33 PM EDT (9/5)
Length of Visible Light 13h 58m
Length of Day
12h 59m
New Moon, 0% of the Moon is Illuminated
Sep 5
New Moon
Sep 12
First Quarter
Sep 19
Full
Sep 26
Last Quarter
Oct 4
New

Hourly Weather History & Observations

Time (EDT) Temp. Dew Point Humidity Pressure Visibility Wind Dir Wind Speed Gust Speed Precip Events Conditions
12:00 AM 61.0 °F 52.9 °F 75% 30.02 in - North - - N/A   Unknown
1:00 AM 59.9 °F 52.0 °F 75% 30.02 in - North - - N/A   Unknown
2:00 AM 59 °F 52 °F 70% 30.03 in - Calm Calm - -  
2:00 AM 58.8 °F 51.8 °F 77% 30.03 in - North - - N/A   Unknown
3:00 AM 57.9 °F 51.3 °F 78% 30.04 in - North - - N/A   Unknown
4:00 AM 56.1 °F 50.2 °F 80% 30.05 in - North - - N/A   Unknown
5:00 AM 56.1 °F 49.3 °F 78% 30.08 in - North - - N/A   Unknown
6:00 AM 56.7 °F 48.4 °F 74% 30.08 in - North - - N/A   Unknown
7:00 AM 55.8 °F 48.7 °F 77% 30.11 in - North - - N/A   Unknown
8:00 AM 57 °F 45 °F 54% 30.14 in - Calm Calm - -  
8:00 AM 56.8 °F 45.0 °F 64% 30.14 in - North - - N/A   Unknown
9:00 AM 57.7 °F 43.3 °F 59% 30.17 in - North - - N/A   Unknown
10:00 AM 58.8 °F 38.8 °F 47% 30.18 in - North - - N/A   Unknown
11:00 AM 62.1 °F 41.7 °F 47% 30.19 in - North - - N/A   Unknown
12:00 PM 62.4 °F 39.4 °F 43% 30.19 in - North - - N/A   Unknown
1:00 PM 62.6 °F 37.0 °F 39% 30.20 in - North - - N/A   Unknown
2:00 PM 63 °F 37 °F 27% 30.21 in - Calm Calm - -  
2:00 PM 63.0 °F 37.2 °F 38% 30.21 in - North - - N/A   Unknown
3:00 PM 64.2 °F 34.2 °F 33% 30.20 in - North - - N/A   Unknown
4:00 PM 63.9 °F 34.3 °F 33% 30.20 in - North - - N/A   Unknown
5:00 PM 61.9 °F 31.5 °F 32% 30.20 in - North - - N/A   Unknown
6:00 PM 60.8 °F 33.3 °F 36% 30.22 in - North - - N/A   Unknown
7:00 PM 59.5 °F 33.4 °F 37% 30.23 in - North - - N/A   Unknown
8:00 PM 58 °F 35 °F 30% 30.24 in - Calm Calm - -  
8:00 PM 57.6 °F 35.2 °F 43% 30.24 in - North - - N/A   Unknown
9:00 PM 56.3 °F 37.2 °F 49% 30.25 in - North - - N/A   Unknown
10:00 PM 55.6 °F 38.1 °F 52% 30.26 in - North - - N/A   Unknown
11:00 PM 54.1 °F 38.7 °F 56% 30.27 in - North - - N/A   Unknown